TimeEST,TemperatureF,Dew PointF,Humidity,Sea Level PressureIn,VisibilityMPH,Wind Direction,Wind SpeedMPH,Gust SpeedMPH,PrecipitationIn,Events,Conditions,WindDirDegrees,DateUTC
12:53 AM,26.1,24.1,92,30.27,10.0,Calm,Calm,-,N/A,,Clear,0,2012-12-26 05:53:00
1:53 AM,26.1,23.0,88,30.28,10.0,Calm,Calm,-,N/A,,Clear,0,2012-12-26 06:53:00
2:53 AM,25.0,23.0,92,30.27,10.0,NNW,3.5,-,N/A,,Clear,340,2012-12-26 07:53:00
3:53 AM,26.1,23.0,88,30.25,10.0,Calm,Calm,-,N/A,,Clear,0,2012-12-26 08:53:00
4:53 AM,24.1,21.0,88,30.26,10.0,Calm,Calm,-,N/A,,Clear,0,2012-12-26 09:53:00
5:53 AM,25.0,21.9,88,30.23,10.0,NNE,4.6,-,N/A,,Clear,20,2012-12-26 10:53:00
6:53 AM,27.0,23.0,85,30.24,10.0,NNE,4.6,-,N/A,,Clear,30,2012-12-26 11:53:00
7:53 AM,28.0,21.9,78,30.23,10.0,NE,5.8,-,N/A,,Clear,40,2012-12-26 12:53:00
8:53 AM,28.9,21.0,72,30.22,10.0,ENE,4.6,-,N/A,,Clear,70,2012-12-26 13:53:00
9:53 AM,30.0,19.9,66,30.22,10.0,Variable,5.8,-,N/A,,Clear,0,2012-12-26 14:53:00
10:53 AM,30.0,19.0,64,30.18,10.0,Variable,4.6,-,N/A,,Mostly Cloudy,0,2012-12-26 15:53:00
11:53 AM,30.9,19.0,61,30.14,10.0,NE,9.2,-,N/A,,Overcast,50,2012-12-26 16:53:00
12:02 PM,30.2,19.4,64,30.12,10.0,NE,8.1,-,N/A,,Overcast,50,2012-12-26 17:02:00
12:53 PM,33.1,19.9,59,30.09,10.0,NE,10.4,-,N/A,,Overcast,40,2012-12-26 17:53:00
1:53 PM,30.9,23.0,72,30.04,3.0,Variable,4.6,-,0.00,Snow,Light Snow,0,2012-12-26 18:53:00
1:57 PM,30.2,23.0,75,30.02,1.8,Variable,6.9,-,0.00,Snow,Light Snow,0,2012-12-26 18:57:00
2:28 PM,30.2,26.6,86,30.00,0.8,ENE,6.9,-,0.00,Snow,Light Snow,60,2012-12-26 19:28:00
2:53 PM,30.0,27.0,88,29.99,0.5,NE,10.4,-,0.00,Fog-Snow,Snow,50,2012-12-26 19:53:00
3:00 PM,30.2,26.6,86,29.96,0.5,NE,11.5,19.6,0.00,Fog-Snow,Snow,50,2012-12-26 20:00:00
3:08 PM,30.2,26.6,86,29.95,0.2,NE,12.7,18.4,0.00,Fog-Snow,Snow,50,2012-12-26 20:08:00
3:31 PM,30.2,28.4,93,29.91,0.5,NE,13.8,27.6,0.00,Fog-Snow,Light Snow,50,2012-12-26 20:31:00
3:38 PM,30.2,28.4,93,29.91,1.0,NE,13.8,26.5,0.00,Snow,Light Snow,50,2012-12-26 20:38:00
3:47 PM,30.2,28.4,93,29.91,3.0,ENE,10.4,26.5,0.00,,Overcast,60,2012-12-26 20:47:00
3:53 PM,32.0,28.9,88,29.92,4.0,ENE,13.8,26.5,0.00,,Overcast,70,2012-12-26 20:53:00
4:05 PM,32.0,28.4,87,29.89,4.0,ENE,13.8,23.0,0.00,,Overcast,60,2012-12-26 21:05:00
4:13 PM,32.0,30.2,93,29.88,4.0,ENE,15.0,24.2,0.00,Rain,Light Freezing Rain,70,2012-12-26 21:13:00
4:40 PM,33.8,30.2,87,29.84,4.0,NE,15.0,21.9,0.00,Snow,Light Snow,50,2012-12-26 21:40:00
4:53 PM,33.1,30.9,92,29.84,10.0,ENE,13.8,25.3,0.00,Rain,Light Rain,60,2012-12-26 21:53:00
5:53 PM,34.0,30.9,89,29.82,10.0,East,9.2,21.9,0.01,Rain,Light Rain,80,2012-12-26 22:53:00
6:53 PM,35.1,32.0,89,29.75,9.0,ENE,10.4,24.2,0.02,Rain,Light Rain,70,2012-12-26 23:53:00
7:53 PM,36.0,33.1,89,29.73,6.0,East,8.1,20.7,0.04,Rain,Light Rain,90,2012-12-27 00:53:00
8:53 PM,35.1,33.1,92,29.63,3.0,ENE,11.5,32.2,0.27,Rain,Rain,60,2012-12-27 01:53:00
9:53 PM,36.0,33.1,89,29.61,4.0,ENE,12.7,25.3,0.15,Rain,Light Rain,60,2012-12-27 02:53:00
10:53 PM,36.0,34.0,93,29.53,5.0,NE,17.3,26.5,0.12,Rain,Rain,40,2012-12-27 03:53:00
11:19 PM,37.4,33.8,87,29.50,4.0,NE,12.7,25.3,0.10,Rain,Rain,40,2012-12-27 04:19:00
11:35 PM,35.6,33.8,93,29.51,3.0,Variable,6.9,-,0.19,Rain,Heavy Rain,0,2012-12-27 04:35:00
11:53 PM,37.0,34.0,89,29.49,3.0,Variable,6.9,24.2,0.27,Rain,Rain,0,2012-12-27 04:53:00